Regional Weather Roundup
Issued by NWS

Home | Current Version | Previous Version | Graphics & Text | Print | Product List | Glossary On
Versions: 1 2 3 4 5 6 7 8 9 10 11 12 13 14 15 16 17 18 19 20 21 22 23 24 25 26 27 28 29 30 31 32 33 34 35 36 37 38 39 40 41 42 43 44 45 46 47 48 49 50
000
ASUS43 KFSD 291110
RWRSD

WEATHER ROUNDUP FOR SOUTH DAKOTA
NATIONAL WEATHER SERVICE SIOUX FALLS SD
600 AM CDT MON MAY 29 2017

NOTE: "FAIR" INDICATES FEW OR NO CLOUDS BELOW 12,000 FEET WITH NO
SIGNIFICANT WEATHER AND/OR OBSTRUCTIONS TO VISIBILITY.


SDZ001>005-009-010-012>017-291200-
NORTHWEST AND NORTH CENTRAL SOUTH DAKOTA

CITY           SKY/WX    TMP DP  RH WIND       PRES   REMARKS
BUFFALO          N/A     43  34  70 NW14      30.07S
FAITH            N/A     41  36  82 W12       30.09R
MOBRIDGE       CLEAR     46  39  76 NW9       30.00R
$$

SDZ012>016-024>037-041>051-057-063-072>074-291200-
SOUTHWEST AND SOUTH CENTRAL SOUTH DAKOTA

CITY           SKY/WX    TMP DP  RH WIND       PRES   REMARKS
RAPID CTY ARPT CLEAR     40  34  79 NW6       30.14R
PIERRE         CLEAR     48  40  73 NW12      30.02R
CUSTER         CLEAR     44  25  47 NW7       30.17S
ELLSWORTH AFB  CLEAR     43  36  75 NW9       30.13S
PHILIP         CLEAR     39  35  86 NW3       30.09R
PINE RIDGE     CLEAR     40  39  97 CALM      30.13R
SPEARFISH      FAIR      39  32  75 SW8       30.17R
WINNER         FAIR      47  41  80 W6        30.04R
$$

SDZ004>011-016>023-039-040-291200-
NORTHEAST SOUTH DAKOTA

CITY           SKY/WX    TMP DP  RH WIND       PRES   REMARKS
ABERDEEN       CLEAR     48  40  73 W15G22    29.92R
WATERTOWN      PTCLDY    48  44  86 NW9       29.89R
BROOKINGS      CLEAR     47  43  86 NW9       29.91R
SISSETON         N/A     53  48  83 NW15      29.84R
$$

SDZ017-020-022-023-036>040-048>070-291200-
SOUTHEAST SOUTH DAKOTA

CITY           SKY/WX    TMP DP  RH WIND       PRES   REMARKS
SIOUX FALLS    CLEAR     50  45  83 NW12      29.92R
HURON          CLEAR     47  42  83 NW14      29.95R
CHAMBERLAIN    CLEAR     48  42  80 W10       30.01R
MITCHELL       CLEAR     49  43  80 W9        29.97R
YANKTON        CLEAR     52  46  80 W10       29.95S
$$

ABBREVIATIONS USED IN REMARKS
   TC - TEMPERATURE IN CELSIUS
  WCI - WIND CHILL INDEX
   HX - HEAT INDEX
  VSB - VISIBILITY





USA.gov is the U.S. government's official web portal to all federal, state and local government web resources and services.